FW7539 Weather Reports


Display with metric or nautical units.
time (UTC)temp
F
wind
direction
speed
MPH
gust
MPH
rain 1hr
in
rain 24hr
in
rain mn
in
humidity
%
barometer
mb
20260506232022 58 301 2.0 6.0 0.00 0.69 0.45 54 1014.4
20260506231501 58 352 3.0 8.0 0.00 0.70 0.45 54 1014.2
20260506231002 59 4 3.0 8.0 0.00 0.70 0.45 53 1014.1
20260506230523 59 354 2.0 6.0 0.00 0.71 0.45 53 1014.1
20260506230022 60 326 3.0 7.0 0.00 0.71 0.45 52 1014.2
20260506225501 59 346 3.0 9.0 0.00 0.71 0.45 53 1014.2
20260506225001 59 4 3.0 9.0 0.00 0.71 0.45 54 1014.3
20260506224501 59 10 3.0 9.0 0.00 0.71 0.45 55 1014.4
20260506224002 59 350 2.0 5.0 0.00 0.71 0.45 55 1014.3
20260506223502 58 278 2.0 5.0 0.00 0.71 0.45 55 1014.2
20260506223002 58 309 2.0 5.0 0.00 0.71 0.45 55 1014.4
20260506222501 58 345 2.0 5.0 0.00 0.71 0.45 55 1014.5
20260506222001 58 313 1.0 5.0 0.00 0.71 0.45 55 1014.5
20260506221501 58 291 1.0 4.0 0.00 0.71 0.45 55 1014.5
20260506221001 58 312 1.0 3.0 0.00 0.71 0.45 54 1014.6
20260506220501 58 295 1.0 3.0 0.00 0.71 0.45 54 1014.6
20260506220002 58 264 1.0 4.0 0.00 0.71 0.45 53 1014.7
20260506215501 58 299 1.0 4.0 0.00 0.71 0.45 53 1014.7
20260506215001 58 355 1.0 4.0 0.00 0.71 0.45 54 1014.7
20260506214523 58 6 2.0 5.0 0.00 0.71 0.45 54 1014.8
20260506214002 58 7 2.0 5.0 0.00 0.71 0.45 54 1014.7
20260506213501 58 4 2.0 5.0 0.00 0.71 0.45 53 1014.6
20260506213001 58 350 2.0 6.0 0.00 0.71 0.45 55 1014.5
20260506212502 58 354 3.0 8.0 0.00 0.71 0.45 54 1014.5
20260506212001 58 342 2.0 8.0 0.00 0.71 0.45 55 1014.4
20260506211501 58 277 1.0 5.0 0.00 0.71 0.45 54 1014.5
20260506211001 59 292 1.0 4.0 0.00 0.71 0.45 52 1014.4
20260506210502 59 346 2.0 5.0 0.00 0.72 0.45 52 1014.2
20260506210001 59 348 2.0 5.0 0.00 0.72 0.45 52 1014.1
20260506205501 59 344 2.0 6.0 0.00 0.73 0.45 51 1014.1
20260506205002 59 350 2.0 6.0 0.00 0.73 0.45 52 1014.1
20260506204502 59 354 2.0 8.0 0.00 0.73 0.45 50 1014.1
20260506204001 59 350 2.0 8.0 0.00 0.73 0.45 51 1014.2
20260506203501 59 320 2.0 8.0 0.00 0.73 0.45 54 1014.3
20260506203001 58 259 2.0 6.0 0.00 0.74 0.45 52 1014.2
20260506202502 58 269 2.0 8.0 0.00 0.74 0.45 53 1014.3
20260506202002 58 288 2.0 8.0 0.00 0.75 0.45 52 1014.3
20260506201501 58 297 2.0 6.0 0.00 0.75 0.45 53 1014.5
20260506201002 59 325 2.0 7.0 0.00 0.76 0.45 54 1014.3
20260506200502 58 309 2.0 7.0 0.00 0.76 0.45 54 1014.2
20260506200023 58 287 2.0 7.0 0.00 0.77 0.45 52 1014.4
20260506195501 59 331 2.0 5.0 0.00 0.77 0.45 52 1014.4
20260506195022 59 5 2.0 8.0 0.00 0.77 0.45 55 1014.2
20260506194502 59 357 3.0 8.0 0.00 0.78 0.45 50 1014.3
20260506194001 59 350 2.0 6.0 0.00 0.79 0.45 51 1014.3
20260506193522 59 348 2.0 6.0 0.00 0.79 0.45 54 1014.1
20260506193001 59 356 3.0 9.0 0.00 0.81 0.45 53 1014.1
20260506192501 59 356 3.0 9.0 0.00 0.82 0.45 48 1014.0
20260506192001 60 357 3.0 8.0 0.00 0.83 0.45 50 1013.8
20260506191501 60 8 3.0 12.0 0.00 0.85 0.45 52 1013.8
20260506191002 60 13 4.0 12.0 0.00 0.87 0.45 51 1013.7
20260506190501 60 15 3.0 12.0 0.00 0.90 0.45 53 1013.8
20260506190001 61 6 2.0 6.0 0.00 0.91 0.45 50 1013.9
20260506185502 61 360 3.0 9.0 0.00 0.91 0.45 50 1013.8
20260506185001 60 356 3.0 9.0 0.00 0.91 0.45 50 1013.7
20260506184501 61 359 4.0 12.0 0.00 0.91 0.45 50 1013.9
20260506184023 61 3 3.0 12.0 0.00 0.91 0.45 49 1013.7
20260506183501 62 356 3.0 10.0 0.00 0.91 0.45 48 1013.8
20260506183001 61 351 3.0 10.0 0.00 0.91 0.45 49 1013.6
20260506182502 61 3 3.0 11.0 0.00 0.91 0.45 50 1013.7
20260506182002 61 351 2.0 11.0 0.00 0.91 0.45 51 1013.7
20260506181501 61 309 2.0 4.0 0.00 0.91 0.45 49 1013.6
20260506181001 61 344 3.0 6.0 0.00 0.91 0.45 53 1013.7
20260506180502 61 359 4.0 11.0 0.00 0.91 0.45 54 1013.7
20260506180001 60 360 3.0 11.0 0.00 0.91 0.45 55 1013.9
20260506175501 61 334 2.0 9.0 0.00 0.91 0.45 51 1014.0
20260506175002 61 346 2.0 8.0 0.00 0.91 0.45 54 1014.0
20260506174501 61 26 3.0 7.0 0.00 0.91 0.45 53 1014.0
20260506174002 60 25 2.0 8.0 0.00 0.91 0.45 55 1014.0
20260506173502 60 360 2.0 10.0 0.00 0.91 0.45 55 1014.1
20260506173002 59 322 2.0 10.0 0.00 0.91 0.45 56 1014.2
20260506172501 59 318 2.0 5.0 0.00 0.91 0.45 57 1014.2
20260506172001 59 10 3.0 10.0 0.00 0.91 0.45 53 1014.1
20260506171502 59 18 3.0 10.0 0.00 0.91 0.45 54 1014.2
20260506171002 59 354 2.0 4.0 0.00 0.91 0.45 59 1014.2
20260506170502 58 302 2.0 6.0 0.00 0.91 0.45 59 1014.3
20260506170022 58 348 3.0 6.0 0.00 0.91 0.45 57 1014.4
20260506165501 58 7 3.0 6.0 0.00 0.91 0.45 57 1014.4
20260506165023 58 350 2.0 6.0 0.00 0.91 0.45 57 1014.3
20260506164523 58 347 2.0 8.0 0.00 0.91 0.45 58 1014.5
20260506164001 58 360 2.0 8.0 0.00 0.91 0.45 55 1014.5
20260506163501 58 1 2.0 6.0 0.00 0.91 0.45 59 1014.3
20260506163002 58 5 3.0 9.0 0.00 0.91 0.45 57 1014.3
20260506162502 58 3 3.0 9.0 0.00 0.91 0.45 60 1014.3
20260506162002 57 340 3.0 9.0 0.00 0.91 0.45 60 1014.3
20260506161501 57 5 3.0 9.0 0.00 0.91 0.45 59 1014.5
20260506161002 57 12 3.0 9.0 0.00 0.91 0.45 58 1014.5
20260506160522 57 358 2.0 9.0 0.00 0.91 0.45 61 1014.4
20260506160001 57 1 2.0 7.0 0.00 0.91 0.45 63 1014.4
20260506155502 56 356 3.0 7.0 0.00 0.91 0.45 62 1014.2
20260506155002 56 345 3.0 7.0 0.00 0.91 0.45 63 1014.1
20260506154502 55 334 2.0 7.0 0.00 0.91 0.45 64 1014.0
20260506154001 55 357 2.0 7.0 0.00 0.91 0.45 63 1014.1
20260506153501 54 6 3.0 8.0 0.00 0.91 0.45 65 1013.9
20260506153002 54 2 3.0 9.0 0.00 0.91 0.45 65 1014.0
20260506152502 54 347 2.0 9.0 0.00 0.91 0.45 65 1014.1
20260506152001 54 343 2.0 5.0 0.00 0.91 0.45 65 1014.4
20260506151501 54 345 2.0 5.0 0.00 0.91 0.45 66 1014.6
20260506151002 54 352 2.0 6.0 0.00 0.91 0.45 66 1014.5
20260506150502 53 7 2.0 7.0 0.00 0.91 0.45 68 1014.1
20260506150001 53 14 3.0 8.0 0.00 0.91 0.45 69 1013.7
20260506145501 52 6 2.0 8.0 0.00 0.91 0.45 70 1013.7
20260506145002 52 344 2.0 5.0 0.00 0.91 0.45 68 1013.7
20260506144502 52 356 2.0 8.0 0.00 0.91 0.45 71 1013.6
20260506144002 52 7 2.0 9.0 0.00 0.91 0.45 72 1013.4
20260506143522 51 8 3.0 9.0 0.00 0.91 0.45 74 1013.2
20260506143001 51 7 3.0 7.0 0.00 0.91 0.45 72 1013.0
20260506142502 51 4 3.0 6.0 0.00 0.91 0.45 74 1013.1
20260506142002 50 355 2.0 7.0 0.00 0.91 0.45 76 1013.0
20260506141502 50 347 2.0 7.0 0.00 0.91 0.45 75 1013.0
20260506141002 50 347 2.0 6.0 0.00 0.91 0.45 77 1013.1
20260506140501 50 356 2.0 7.0 0.00 0.91 0.45 77 1013.2
20260506140002 50 358 2.0 7.0 0.00 0.91 0.45 78 1013.2
20260506135501 50 354 2.0 5.0 0.00 0.91 0.45 80 1013.0
20260506135002 50 348 2.0 5.0 0.00 0.91 0.45 79 1013.0
20260506134502 50 351 3.0 8.0 0.00 0.91 0.45 79 1013.0
20260506134023 49 351 2.0 8.0 0.00 0.91 0.45 81 1012.9
20260506133502 49 350 2.0 9.0 0.00 0.91 0.45 82 1013.0
20260506133001 48 345 2.0 9.0 0.00 0.91 0.45 82 1012.8
20260506132522 48 324 2.0 5.0 0.00 0.91 0.45 82 1012.7
20260506132002 48 347 2.0 6.0 0.00 0.91 0.45 83 1012.9
20260506131502 48 358 2.0 6.0 0.00 0.91 0.45 83 1012.6
20260506131022 48 4 2.0 5.0 0.00 0.91 0.45 83 1012.5
20260506130502 47 1 2.0 5.0 0.00 0.91 0.45 84 1012.3
20260506130002 47 1 2.0 5.0 0.00 0.91 0.45 84 1012.4
20260506125502 47 354 1.0 5.0 0.00 0.91 0.45 85 1012.6
20260506125002 47 314 1.0 4.0 0.00 0.91 0.45 85 1012.8
20260506124501 47 305 1.0 4.0 0.00 0.91 0.45 85 1012.6
20260506124002 47 340 1.0 6.0 0.00 0.91 0.45 86 1012.4
20260506123502 46 344 2.0 6.0 0.00 0.91 0.45 86 1012.3
20260506123023 46 326 1.0 4.0 0.00 0.91 0.45 86 1012.3
20260506122501 46 340 2.0 7.0 0.00 0.91 0.45 86 1012.5
20260506122002 46 336 2.0 7.0 0.00 0.91 0.45 87 1012.4
20260506121502 46 315 1.0 5.0 0.00 0.91 0.45 86 1012.2
20260506121001 46 328 1.0 6.0 0.00 0.91 0.45 87 1012.2
20260506120501 46 344 1.0 6.0 0.00 0.91 0.45 87 1012.1
20260506120002 46 339 1.0 3.0 0.00 0.91 0.45 87 1011.9
20260506115502 46 347 1.0 4.0 0.00 0.91 0.45 87 1011.7
20260506115002 46 358 2.0 6.0 0.00 0.91 0.45 87 1011.6
20260506114502 45 358 2.0 6.0 0.00 0.91 0.45 87 1011.5
20260506114001 45 330 1.0 5.0 0.00 0.92 0.45 88 1011.1
20260506113502 45 318 1.0 4.0 0.00 0.92 0.45 88 1011.0
20260506113002 45 354 1.0 4.0 0.00 0.92 0.45 88 1011.1
20260506112502 45 339 1.0 3.0 0.00 0.92 0.45 89 1010.8
20260506112001 45 322 1.0 3.0 0.00 0.92 0.45 88 1011.0
20260506111523 45 351 1.0 6.0 0.00 0.92 0.45 88 1011.0
20260506111002 45 5 1.0 6.0 0.00 0.92 0.45 88 1010.5
20260506110502 45 12 1.0 4.0 0.00 0.92 0.45 89 1010.7
20260506110001 45 358 1.0 4.0 0.00 0.93 0.45 89 1010.6
20260506105502 44 310 1.0 4.0 0.00 0.93 0.45 89 1010.7
20260506105002 44 266 1.0 2.0 0.00 0.93 0.45 89 1010.8
20260506104502 44 316 1.0 3.0 0.00 0.93 0.45 89 1010.5
20260506104023 44 350 1.0 4.0 0.00 0.93 0.45 89 1009.9
20260506103502 44 278 1.0 4.0 0.00 0.93 0.45 89 1009.9
20260506103002 44 272 1.0 5.0 0.00 0.93 0.45 88 1010.0
20260506102502 44 308 1.0 5.0 0.00 0.93 0.45 88 1010.4
20260506102002 44 319 1.0 2.0 0.00 0.93 0.45 88 1010.5
20260506101502 45 305 1.0 4.0 0.00 0.94 0.45 88 1010.6
20260506101002 45 307 1.0 4.0 0.00 0.95 0.45 88 1010.2
20260506100502 45 341 1.0 3.0 0.00 0.99 0.45 88 1009.8
20260506100002 45 356 1.0 5.0 0.00 1.01 0.45 88 1009.6
20260506095501 45 349 1.0 5.0 0.00 1.03 0.45 88 1009.4
20260506095023 45 351 1.0 5.0 0.00 1.04 0.45 88 1009.6
20260506094523 45 6 1.0 4.0 0.00 1.05 0.45 87 1009.6
20260506094002 45 5 1.0 5.0 0.00 1.05 0.45 87 1009.7
20260506093501 44 3 1.0 5.0 0.00 1.06 0.45 87 1009.5
20260506093001 45 354 0.0 2.0 0.00 1.07 0.45 88 1009.6
20260506092502 45 344 1.0 3.0 0.00 1.07 0.45 87 1009.7
20260506092002 45 355 2.0 9.0 0.00 1.08 0.45 87 1009.7
20260506091502 45 2 3.0 9.0 0.00 1.08 0.45 87 1009.3
20260506091002 44 6 3.0 11.0 0.00 1.09 0.45 87 1009.0
20260506090502 44 5 3.0 11.0 0.00 1.09 0.45 87 1008.9
20260506090023 44 6 3.0 9.0 0.00 1.09 0.45 87 1009.0
20260506085502 44 5 4.0 11.0 0.01 1.09 0.45 88 1008.9
20260506085002 45 9 3.0 11.0 0.01 1.09 0.45 88 1008.8
20260506084503 45 10 3.0 9.0 0.01 1.09 0.45 88 1008.8
20260506084022 45 1 3.0 9.0 0.01 1.09 0.45 88 1009.2
20260506083502 45 360 3.0 9.0 0.01 1.09 0.45 88 1009.3
20260506083023 45 358 3.0 9.0 0.02 1.09 0.45 88 1009.0
20260506082502 45 3 3.0 9.0 0.02 1.09 0.45 89 1009.1
20260506082002 45 1 3.0 9.0 0.04 1.09 0.45 89 1009.0
20260506081502 45 357 3.0 9.0 0.05 1.09 0.45 89 1008.9
20260506081002 45 360 4.0 11.0 0.05 1.09 0.45 90 1008.7
20260506080502 46 1 4.0 11.0 0.05 1.09 0.45 90 1008.4
20260506073502 47 351 3.0 10.0 0.09 1.08 0.44 90 1008.3
20260506073002 47 360 5.0 11.0 0.09 1.07 0.43 90 1008.3
20260506072502 47 2 4.0 11.0 0.08 1.06 0.42 90 1008.6
20260506072002 48 359 2.0 11.0 0.07 1.05 0.41 90 1008.6
20260506071523 48 357 2.0 8.0 0.06 1.04 0.40 90 1008.5
20260506071024 48 4 2.0 5.0 0.07 1.04 0.40 90 1008.4
20260506070502 48 360 3.0 11.0 0.07 1.04 0.40 90 1008.5
20260506062502 48 2 3.0 10.0 0.10 0.98 0.34 90 1008.0
20260506062002 48 2 3.0 8.0 0.12 0.98 0.34 90 1008.0
20260506061502 48 4 4.0 10.0 0.13 0.98 0.34 90 1007.8
20260506061023 48 6 5.0 14.0 0.13 0.97 0.33 90 1007.6
20260506060502 49 360 4.0 14.0 0.14 0.97 0.33 90 1007.6
20260506051002 51 7 2.0 9.0 0.14 0.84 0.20 90 1007.4
20260506050524 51 6 3.0 11.0 0.17 0.83 0.19 90 1007.3
20260506045023 52 7 2.0 9.0 0.13 0.77 0.13 90 1007.3
20260506044503 52 2 2.0 6.0 0.12 0.76 0.12 90 1007.1
20260506044002 52 1 3.0 8.0 0.13 0.75 0.11 89 1007.1
20260506043523 53 360 2.0 8.0 0.13 0.74 0.10 89 1007.2
20260506043002 54 359 3.0 10.0 0.14 0.74 0.10 89 1007.2
20260506042503 54 352 3.0 10.0 0.13 0.73 0.09 89 1006.8
20260506042002 56 335 2.0 8.0 0.12 0.72 0.08 89 1007.0
20260506041502 58 298 1.0 4.0 0.11 0.71 0.07 90 1007.1
20260506041023 59 199 0.0 2.0 0.09 0.69 0.05 90 1006.9
20260506040502 59 155 0.0 2.0 0.06 0.66 0.02 90 1006.8
20260506040002 59 156 1.0 2.0 0.04 0.64 0.00 89 1006.9
20260506035502 59 157 1.0 2.0 0.04 0.64 0.64 89 1006.6
20260506035003 59 157 1.0 2.0 0.04 0.64 0.64 89 1006.6
20260506034502 59 163 1.0 3.0 0.04 0.64 0.64 89 1006.6
20260506034002 59 184 1.0 3.0 0.02 0.62 0.62 89 1006.7
20260506033503 59 192 0.0 3.0 0.02 0.61 0.61 89 1006.8
20260506033003 59 202 0.0 2.0 0.02 0.60 0.60 89 1006.7
20260506032523 59 203 0.0 2.0 0.02 0.60 0.60 89 1006.7
20260506032002 59 206 0.0 2.0 0.02 0.60 0.60 89 1006.7
20260506031503 59 209 0.0 2.0 0.02 0.60 0.60 89 1006.9
20260506031002 59 211 1.0 2.0 0.02 0.60 0.60 89 1006.9
20260506030502 59 213 1.0 2.0 0.02 0.60 0.60 90 1006.9
20260506030002 59 219 1.0 2.0 0.02 0.60 0.60 90 1007.0
20260506025502 59 222 1.0 2.0 0.03 0.60 0.60 90 1007.1
20260506025003 59 229 0.0 2.0 0.04 0.60 0.60 90 1007.2
20260506024502 59 0 0.0 0.0 0.05 0.60 0.60 90 1007.1
20260506024002 59 0 0.0 0.0 0.06 0.60 0.60 90 1007.1
20260506023503 59 0 0.0 0.0 0.06 0.59 0.59 90 1007.5
20260506023023 59 0 0.0 0.0 0.05 0.58 0.58 90 1007.6
20260506022523 59 233 0.0 1.0 0.06 0.58 0.58 90 1007.8
20260506022024 59 233 0.0 1.0 0.06 0.58 0.58 90 1007.8
20260506021502 59 0 0.0 0.0 0.06 0.58 0.58 90 1007.8
20260506021002 59 0 0.0 0.0 0.06 0.58 0.58 90 1007.8
20260506020503 59 233 0.0 1.0 0.06 0.58 0.58 90 1007.8
20260506020003 59 233 0.0 1.0 0.07 0.58 0.58 89 1007.6
20260506015502 59 233 0.0 2.0 0.09 0.57 0.57 89 1007.6
20260506015002 59 233 0.0 2.0 0.09 0.56 0.56 89 1007.6
20260506014502 59 0 0.0 0.0 0.09 0.54 0.54 89 1007.7
20260506014002 59 0 0.0 0.0 0.11 0.54 0.54 89 1007.7
20260506013502 59 0 0.0 0.0 0.11 0.53 0.53 89 1007.6
20260506013003 59 0 0.0 0.0 0.11 0.53 0.53 89 1007.6
20260506012503 59 0 0.0 0.0 0.10 0.52 0.52 89 1007.5
20260506012002 59 0 0.0 0.0 0.10 0.52 0.52 89 1007.5
20260506011523 60 0 0.0 0.0 0.10 0.52 0.52 89 1007.4
20260506011003 60 232 0.0 2.0 0.10 0.52 0.52 89 1007.3
20260506010502 60 232 0.0 2.0 0.09 0.51 0.51 89 1007.4
20260506010002 60 232 0.0 1.0 0.09 0.50 0.50 89 1007.4
20260506005503 60 234 0.0 3.0 0.07 0.48 0.48 89 1007.5
20260506005002 60 229 1.0 3.0 0.07 0.47 0.47 89 1007.7
20260506004503 60 233 1.0 4.0 0.05 0.45 0.45 89 1007.6
20260506004003 60 250 1.0 5.0 0.03 0.43 0.43 89 1007.4
20260506003502 60 303 0.0 5.0 0.02 0.42 0.42 89 1007.2
20260506003003 60 266 0.0 1.0 0.02 0.42 0.42 89 1007.1
20260506002502 60 266 0.0 1.0 0.02 0.42 0.42 89 1007.0
20260506002002 60 266 0.0 1.0 0.02 0.42 0.42 89 1007.1
20260506001503 60 266 0.0 1.0 0.03 0.42 0.42 89 1007.0
20260506001023 60 266 0.0 2.0 0.03 0.42 0.42 89 1007.1
20260506000502 60 266 0.0 2.0 0.04 0.42 0.42 89 1006.9
20260506000002 60 266 0.0 1.0 0.03 0.41 0.41 89 1006.8
20260505235503 60 266 0.0 1.0 0.03 0.41 0.41 89 1006.6
20260505235002 60 252 0.0 2.0 0.02 0.40 0.40 89 1006.7
20260505234502 60 216 1.0 4.0 0.02 0.40 0.40 89 1006.8
20260505234002 60 210 1.0 4.0 0.02 0.40 0.40 89 1007.0
20260505233502 61 210 0.0 4.0 0.02 0.40 0.40 89 1007.0
20260505233003 61 233 0.0 2.0 0.02 0.40 0.40 89 1006.9
20260505232502 61 253 1.0 2.0 0.02 0.40 0.40 89 1007.2